Weather History for Jacksonville, FL

Change the Weather History Date:

Monday, December 24, 2012

  Actual Average Record
Temperature  
Mean Temperature 54 °F 54 °F  
Max Temperature 69 °F 65 °F 81 °F (1981)
Min Temperature 39 °F 42 °F 18 °F (1983)
Degree Days  
Heating Degree Days 11 12  
Month to date heating degree days 138 238  
Since 1 July heating degree days 386 411  
Cooling Degree Days 0 0  
Month to date cooling degree days 17 23  
Year to date cooling degree days 2760 2667  
Growing Degree Days 4 (Base 50)    
Moisture  
Dew Point 48 °F    
Average Humidity 74    
Maximum Humidity 96    
Minimum Humidity 51    
Precipitation  
Precipitation 0.04 in 0.10 in 1.65 in (1913)
Month to date precipitation 1.59 2.18  
Year to date precipitation 52.69 51.77  
Snow  
Snow 0.00 in 0.00 in 0.00 in (2001)
Month to date snowfall 0.0 0.0  
Since 1 July snowfall 0.0 0.0  
Snow Depth 0.00 in    
Sea Level Pressure  
Sea Level Pressure 30.04 in    
Wind  
Wind Speed 5 mph (SSW)    
Max Wind Speed 30 mph    
Max Gust Speed 33 mph    
Visibility 10 miles    
Events Rain    
T = Trace of Precipitation, MM = Missing Value Source: NWS Daily Summary

Daily Weather History Graph

Daily Weather History Graph

Search for Another Location

Airport:

Trip Planner

Search our weather history database for the weather conditions in past years. The results will help you decide how hot, cold, wet, or windy it might be!

Date:

Astronomy

Dec. 24, 2012 Rise Set
Actual Time 7:21 AM EST 5:32 PM EST
Civil Twilight 6:54 AM EST 5:58 PM EST
Nautical Twilight 6:24 AM EST 6:28 PM EST
Astronomical Twilight 5:55 AM EST 6:58 PM EST
Moon 2:54 PM EST 4:03 AM EST
Length of Visible Light 11h 03m
Length of Day
10h 10m
Waxing Gibbous, 88% of the Moon is Illuminated
Dec 24
Waxing Gibbous
Dec 28
Full
Jan 4
Last Quarter
Jan 11
New
Jan 18
First Quarter

Hourly Weather History & Observations

Time (EST) Temp. Dew Point Humidity Pressure Visibility Wind Dir Wind Speed Gust Speed Precip Events Conditions
12:56 AM 46.9 °F 41.0 °F 80% 30.15 in 10.0 mi Calm Calm - N/A   Mostly Cloudy
1:56 AM 45.0 °F 41.0 °F 86% 30.13 in 10.0 mi Calm Calm - N/A   Mostly Cloudy
2:56 AM 42.1 °F 39.0 °F 89% 30.13 in 10.0 mi Calm Calm - N/A   Mostly Cloudy
3:56 AM 42.1 °F 39.0 °F 89% 30.11 in 10.0 mi Calm Calm - N/A   Overcast
4:56 AM 43.0 °F 39.9 °F 89% 30.10 in 10.0 mi Calm Calm - N/A   Mostly Cloudy
5:56 AM 43.0 °F 39.0 °F 86% 30.09 in 10.0 mi Calm Calm - N/A   Mostly Cloudy
6:56 AM 42.1 °F 39.0 °F 89% 30.09 in 10.0 mi Calm Calm - N/A   Mostly Cloudy
7:21 AM 39.2 °F 37.4 °F 93% 30.10 in 10.0 mi Calm Calm - N/A   Mostly Cloudy
7:56 AM 43.0 °F 41.0 °F 93% 30.10 in 10.0 mi Calm Calm - N/A   Mostly Cloudy
8:56 AM 50.0 °F 45.0 °F 83% 30.10 in 10.0 mi South 3.5 mph - N/A   Mostly Cloudy
9:56 AM 57.9 °F 39.9 °F 51% 30.10 in 10.0 mi South 6.9 mph - N/A   Mostly Cloudy
10:56 AM 61.0 °F 44.1 °F 54% 30.07 in 10.0 mi South 8.1 mph - N/A   Overcast
11:56 AM 63.0 °F 46.0 °F 54% 30.06 in 10.0 mi SW 4.6 mph - N/A   Mostly Cloudy
12:56 PM 66.0 °F 48.0 °F 52% 30.01 in 10.0 mi SSW 9.2 mph - N/A   Mostly Cloudy
1:56 PM 66.9 °F 50.0 °F 54% 29.98 in 10.0 mi SSW 13.8 mph - N/A   Mostly Cloudy
2:56 PM 68.0 °F 51.1 °F 55% 29.96 in 10.0 mi SSW 10.4 mph - N/A   Mostly Cloudy
3:56 PM 68.0 °F 53.1 °F 59% 29.98 in 10.0 mi SSW 12.7 mph 23.0 mph N/A   Mostly Cloudy
4:56 PM 66.9 °F 53.1 °F 61% 29.96 in 10.0 mi SW 16.1 mph 23.0 mph N/A   Overcast
5:56 PM 64.9 °F 53.1 °F 65% 29.97 in 10.0 mi SSW 8.1 mph - N/A   Overcast
6:56 PM 61.0 °F 55.9 °F 83% 29.99 in 10.0 mi Calm Calm - 0.00 in   Mostly Cloudy
7:48 PM 59.0 °F 55.4 °F 88% 30.00 in 7.0 mi WSW 3.5 mph - 0.01 in Rain Light Rain
7:56 PM 59.0 °F 57.0 °F 93% 30.00 in 5.0 mi Calm Calm - 0.01 in Rain Light Rain
8:05 PM 59.0 °F 57.2 °F 94% 30.00 in 9.0 mi Calm Calm - 0.00 in Rain Light Rain
8:56 PM 59.0 °F 57.0 °F 93% 30.00 in 10.0 mi South 3.5 mph - 0.01 in   Mostly Cloudy
9:56 PM 59.0 °F 57.0 °F 93% 30.01 in 10.0 mi West 4.6 mph - 0.01 in   Overcast
10:19 PM 59.0 °F 57.2 °F 94% 30.01 in 5.0 mi Calm Calm - 0.01 in Rain Light Rain
10:31 PM 59.0 °F 55.4 °F 88% 30.01 in 10.0 mi SSW 3.5 mph - 0.01 in   Overcast
10:56 PM 57.9 °F 55.0 °F 90% 30.01 in 10.0 mi SW 3.5 mph - 0.01 in   Overcast
11:56 PM 57.9 °F 55.0 °F 90% 29.99 in 8.0 mi South 6.9 mph - 0.00 in Rain Light Rain